Rome, NY

6:21 PM EST on November 11, 2019 (GMT -0500)
Griffiss

Weather History for KRME - September, 2019

Change the Weather History Date:

Friday, September 13, 2019

  Actual Average Record
Temperature  
Mean Temperature 58 °F -  
Max Temperature 73 °F 73 °F 88 °F (1982)
Min Temperature 44 °F 49 °F 33 °F (1985)
Degree Days  
Heating Degree Days 7    
Growing Degree Days 8 (Base 50)    
Moisture  
Dew Point 49 °F    
Average Humidity 71    
Maximum Humidity 100    
Minimum Humidity 49    
Precipitation  
Precipitation 0.00 in - - ()
Sea Level Pressure  
Sea Level Pressure 30.37 in    
Wind  
Wind Speed 8 mph (ESE)    
Max Wind Speed 15 mph    
Max Gust Speed 25 mph    
Visibility 10 miles    
Events      
Averages and records for this station are not official NWS values.
T = Trace of Precipitation, MM = Missing Value Source: NWS Daily Summary

Daily Weather History Graph

Daily Weather History Graph

Search for Another Location

Airport or City:

Astronomy

Sep. 13, 2019 Rise Set
Actual Time 6:38 AM EDT 7:15 PM EDT
Civil Twilight 6:10 AM EDT 7:44 PM EDT
Nautical Twilight 5:36 AM EDT 8:18 PM EDT
Astronomical Twilight 5:00 AM EDT 8:53 PM EDT
Moon 7:30 PM EDT (9/13) 5:50 AM EDT (9/13)
Length of Visible Light 13h 34m
Length of Day
12h 37m
Full, 100% of the Moon is Illuminated
Sep 13
Full
Sep 14
Full
Sep 21
Last Quarter
Sep 28
New
Oct 5
First Quarter

Hourly Weather History & Observations

Time (EDT) Temp. Windchill Dew Point Humidity Pressure Visibility Wind Dir Wind Speed Gust Speed Precip Events Conditions
12:53 AM 52.0 °F - 48.9 °F 89% 30.36 in 10.0 mi ENE 4.6 mph - N/A   Clear
1:53 AM 48.9 °F - 48.9 °F 100% 30.38 in 10.0 mi East 3.5 mph - N/A   Clear
2:53 AM 48.0 °F - 46.9 °F 96% 30.38 in 10.0 mi East 3.5 mph - N/A   Clear
3:53 AM 46.9 °F - 46.0 °F 97% 30.39 in 10.0 mi East 6.9 mph - N/A   Clear
4:53 AM 46.0 °F 43.9 °F 45.0 °F 96% 30.39 in 10.0 mi ENE 4.6 mph - N/A   Clear
5:53 AM 45.0 °F - 44.1 °F 97% 30.40 in 10.0 mi Calm Calm - N/A   Clear
6:53 AM 44.1 °F - 43.0 °F 96% 30.43 in 10.0 mi Calm Calm - N/A   Clear
7:53 AM 50.0 °F - 46.0 °F 86% 30.44 in 10.0 mi East 10.4 mph - N/A   Clear
8:53 AM 54.0 °F - 48.0 °F 80% 30.46 in 10.0 mi ESE 10.4 mph - N/A   Clear
9:53 AM 59.0 °F - 48.0 °F 67% 30.45 in 10.0 mi SE 15.0 mph 20.7 mph N/A   Clear
10:53 AM 62.1 °F - 50.0 °F 65% 30.45 in 10.0 mi ESE 12.7 mph - N/A   Clear
11:53 AM 66.0 °F - 51.1 °F 59% 30.43 in 10.0 mi ESE 13.8 mph - N/A   Clear
12:53 PM 68.0 °F - 52.0 °F 56% 30.42 in 10.0 mi ESE 15.0 mph - N/A   Clear
1:53 PM 70.0 °F - 52.0 °F 53% 30.37 in 10.0 mi ESE 11.5 mph 21.9 mph N/A   Clear
2:53 PM 72.0 °F - 52.0 °F 49% 30.35 in 10.0 mi SE 12.7 mph 25.3 mph N/A   Clear
3:53 PM 72.0 °F - 52.0 °F 49% 30.33 in 10.0 mi ESE 15.0 mph - N/A   Clear
4:53 PM 71.1 °F - 51.1 °F 49% 30.33 in 10.0 mi SE 13.8 mph - N/A   Scattered Clouds
5:53 PM 68.0 °F - 52.0 °F 56% 30.32 in 10.0 mi SE 9.2 mph - N/A   Overcast
6:53 PM 68.0 °F - 50.0 °F 52% 30.31 in 10.0 mi SSE 9.2 mph - N/A   Overcast
7:53 PM 66.9 °F - 51.1 °F 57% 30.31 in 10.0 mi SE 9.2 mph 16.1 mph N/A   Overcast
8:53 PM 66.0 °F - 50.0 °F 56% 30.30 in 10.0 mi SE 13.8 mph 19.6 mph N/A   Overcast
9:53 PM 64.9 °F - 51.1 °F 61% 30.29 in 10.0 mi SE 11.5 mph - N/A   Overcast
10:53 PM 64.0 °F - 51.1 °F 63% 30.28 in 10.0 mi SE 10.4 mph - N/A   Overcast
11:53 PM 64.0 °F - 51.1 °F 63% 30.29 in 10.0 mi SE 11.5 mph - N/A   Overcast